[[{"header":{"parameterUnit":"m.s-1","parameterCategory":1,"la1":30.2991,"la2":30.254,"lo1":-89.0895,"lo2":-89.0444,"dx":0.0017,"dy":0.0017,"nx":28,"ny":28,"refTime":"2022-11-05T21:00:00:Z","depth":0,"parameterNumber":2,"parameterNumberName":"U-component_of_WINDS"},"data":[0,0,0,0,0,0,0,0,0,0,0,0,0,0,0,0,0,0,0,0,0,0,0,0,0,0,0,0,0,0,0,0,0,0,0,0,0,0,0,0,0,0,0,0,0,0,0,0,0,0,0,0,0,0,0,0,0,0,-3.7632,-3.7634,0,-3.7757,-3.7758,-3.776,-3.7766,-3.7765,-3.7763,-3.7762,-3.7892,-3.7897,-3.7901,0,0,0,0,0,0,0,0,0,0,0,0,0,-3.7403,-3.7407,-3.7632,-3.7634,-3.7635,-3.7757,-3.7758,-3.776,-3.7767,-3.7765,-3.7763,-3.7761,-3.789,-3.7896,-3.7902,0,0,0,0,0,0,0,0,0,0,0,0,0,-3.7513,-3.7408,-3.7632,-3.7653,-3.7656,-3.7756,-3.7758,-3.776,-3.7767,-3.7765,-3.7763,-3.7761,-3.7888,-3.7895,-3.7903,-3.799,0,0,-3.7925,-3.7928,0,0,0,0,0,0,0,0,-3.7506,-3.7521,-3.7648,-3.7652,-3.7656,-3.7744,-3.7725,-3.7838,-3.7768,-3.7725,-3.7762,-3.776,-3.7845,-3.7855,-3.7883,-3.7996,-3.8002,-3.7925,-3.793,-3.7933,-3.7935,0,0,0,0,0,0,0,-3.7499,-3.7516,-3.7681,-3.765,-3.7655,-3.7657,-3.7671,-3.7746,-3.7795,-3.7729,-3.7729,-3.7744,-3.7846,-3.7876,-3.7886,-3.8004,-3.7925,-3.7931,-3.7936,-3.7939,-3.8196,-3.8199,0,0,0,0,0,0,-3.7487,-3.7509,-3.7678,-3.7685,-3.7574,-3.7663,-3.7678,-3.7718,-3.7795,-3.7804,-3.7746,-3.7744,-3.7865,-3.7878,-3.7891,-3.7999,-3.7933,-3.7939,-3.7943,-3.8194,-3.8197,-3.82,0,0,0,0,0,0,-3.7482,-3.7502,-3.7672,-3.7598,-3.7619,-3.767,-3.7714,-3.7721,-3.7752,-3.7807,-3.7817,-3.7767,-3.7864,-3.7881,-3.7966,-3.8004,-3.7943,-3.7949,-3.8191,-3.8195,-3.8198,-3.8216,0,0,0,0,0,0,-3.7475,-3.75,-3.7533,-3.7598,-3.7623,-3.7744,-3.7716,-3.7725,-3.7764,-3.7762,-3.783,-3.784,-3.7864,-3.7955,-3.7973,-3.8013,-3.7955,-3.8188,-3.8193,-3.8197,-3.8212,-3.822,-3.8226,0,0,0,0,0,-3.7467,-3.7533,-3.7534,-3.7555,-3.7666,-3.7746,-3.7761,-3.7786,-3.7767,-3.7801,-3.7837,-3.7837,-3.7997,-3.7963,-3.7984,-3.8026,-3.8185,-3.8191,-3.8197,-3.8209,-3.8218,-3.8226,0,0,0,0,0,0,-3.7471,-3.7542,-3.7544,-3.7633,-3.7684,-3.7747,-3.7791,-3.7795,-3.7853,-3.7849,-3.788,-3.7895,-3.7979,-3.8011,-3.7973,-3.8116,-3.8089,-3.8099,-3.8091,-3.8101,-3.8108,-3.8098,-3.7961,0,0,0,0,0,-3.7482,-3.7541,-3.76,-3.7673,-3.7698,-3.774,-3.7776,-3.7792,-3.7845,-3.7867,-3.7909,-3.7962,-3.8024,-3.8064,-3.8125,-3.8217,-3.8232,-3.8257,-3.8264,-3.8269,-3.8277,-3.8329,-3.8341,-3.8218,-3.8218,-3.8218,0,0,-3.7506,-3.7552,-3.7587,-3.7675,-3.7716,-3.7777,-3.7758,-3.7823,-3.7869,-3.7877,-3.7959,-3.7993,-3.8054,-3.8143,-3.8184,-3.8172,-3.8315,-3.8276,-3.828,-3.8286,-3.8336,-3.8348,-3.8358,-3.8222,-3.8222,-3.8221,0,0,-3.7581,-3.7621,-3.7687,-3.7728,-3.779,-3.7818,-3.7834,-3.7897,-3.7919,-3.8002,-3.801,-3.8065,-3.8172,-3.8215,-3.8251,-3.8343,-3.8346,-3.8362,-3.8399,-3.8449,-3.8459,-3.8468,-3.8501,-3.8512,-3.837,-3.837,-3.8371,0,-3.7603,-3.7694,-3.772,-3.7785,-3.7824,-3.7834,-3.7901,-3.794,-3.8019,-3.8046,-3.8032,-3.8165,-3.8207,-3.8307,-3.8329,-3.8358,-3.8378,-3.8354,-3.8455,-3.8464,-3.8473,-3.8505,-3.8517,-3.8372,-3.8372,-3.8372,-3.8372,0,-3.7718,-3.7781,-3.7827,-3.7902,-3.7946,-3.8012,-3.8049,-3.8091,-3.8103,-3.8132,-3.8218,-3.8268,-3.8339,-3.8364,-3.8377,-3.8466,-3.8457,-3.8449,-3.8422,-3.8486,-3.8516,-3.8529,-3.8374,-3.8374,-3.8373,-3.8373,0,0,-3.7797,-3.7887,-3.7903,-3.7937,-3.8007,-3.8057,-3.8124,-3.8193,-3.8228,-3.8283,-3.834,-3.843,-3.8424,-3.8464,-3.8482,-3.8527,-3.8597,-3.8513,-3.8515,-3.8527,-3.8699,-3.8704,-3.8718,-3.86,-3.8602,-3.8604,-3.8694,0,-3.7879,-3.7997,-3.8023,-3.8125,-3.8185,-3.8196,-3.8254,-3.8304,-3.8334,-3.839,-3.8423,-3.8486,-3.8472,-3.8497,-3.8542,-3.8579,-3.8632,-3.8573,-3.8654,-3.8656,-3.8637,-3.8734,-3.8739,-3.8821,-3.8706,-3.8708,-3.8709,0,-3.799,-3.8047,-3.8154,-3.8217,-3.8243,-3.8295,-3.836,-3.8413,-3.847,-3.8489,-3.8535,-3.8549,-3.862,-3.8591,-3.869,-3.8649,-3.8685,-3.8708,-3.8712,-3.872,-3.8686,-3.8744,-3.8848,-3.886,-3.8728,-3.8727,-3.8725,0,-3.8037,-3.8141,-3.8218,-3.8248,-3.8323,-3.8359,-3.8392,-3.8447,-3.8487,-3.8545,-3.8571,-3.8637,-3.8673,-3.8724,-3.8756,-3.8732,-3.8853,-3.8826,-3.8871,-3.887,-3.8895,-3.8893,-3.9005,-3.8918,-3.8918,-3.8918,-3.8918,0,-3.8126,-3.8191,-3.824,-3.8288,-3.8362,-3.8392,-3.8465,-3.8499,-3.8548,-3.8603,-3.8618,-3.8669,-3.8708,-3.8766,-3.8791,-3.887,-3.8886,-3.8904,-3.8909,-3.8902,-3.89,-3.8925,-3.892,-3.8921,-3.892,-3.892,-3.8919,0,-3.819,-3.8226,-3.8311,-3.8375,-3.8393,-3.8445,-3.85,-3.8548,-3.8578,-3.8648,-3.8667,-3.8715,-3.8784,-3.882,-3.8907,-3.8924,-3.9012,-3.9015,-3.8992,-3.8994,-3.9037,-3.9032,-3.9169,-3.9189,-3.9089,-3.909,-3.909,0,-3.8244,-3.8295,-3.8364,-3.8402,-3.8435,-3.8496,-3.8537,-3.8569,-3.8611,-3.868,-3.872,-3.8789,-3.8846,-3.8956,-3.8999,-3.9066,-3.907,-3.9114,-3.908,-3.9071,-3.9071,-3.9067,-3.9072,-3.9119,-3.912,-3.9121,-3.9121,0,-3.8336,-3.8351,-3.8409,-3.8473,-3.8521,-3.8574,-3.8625,-3.8656,-3.8697,-3.8744,-3.8814,-3.8858,-3.8946,-3.9015,-3.9085,-3.912,-3.9128,-3.9132,-3.9146,-3.9138,-3.9123,-3.9132,-3.9007,-3.9128,-3.9128,-3.9127,-3.9127,-3.9126,-3.8397,-3.8442,-3.8498,-3.8562,-3.8605,-3.8653,-3.8701,-3.8737,-3.8796,-3.8869,-3.8885,-3.8959,-3.9017,-3.9111,-3.9149,-3.9208,-3.9199,-3.9219,-3.9224,-3.9229,-3.923,-3.9114,-3.9221,-3.9221,-3.922,-3.922,-3.922,0,-3.8489,-3.8526,-3.8584,-3.8656,-3.8707,-3.871,-3.8767,-3.881,-3.8875,-3.8927,-3.8983,-3.9064,-3.9131,-3.918,-3.9249,-3.9287,-3.9292,-3.9304,-3.9301,-3.9309,-3.9234,-3.9215,-3.9298,-3.9298,-3.9298,-3.9298,-3.9298,-3.9298,-3.8543,-3.862,-3.8642,-3.8741,-3.8778,-3.885,-3.8883,-3.8928,-3.897,-3.9059,-3.9114,-3.9146,-3.9197,-3.927,-3.9332,-3.9345,-3.937,-3.9381,-3.9394,-3.9323,-3.9314,-3.9306,-3.9289,-3.9386,-3.9386,-3.9464,-3.9465,-3.9466]},{"header":{"parameterUnit":"m.s-1","parameterCategory":1,"la1":30.2991,"la2":30.254,"lo1":-89.0895,"lo2":-89.0444,"dx":0.0017,"dy":0.0017,"nx":28,"ny":28,"refTime":"2022-11-05T21:00:00:Z","depth":0,"parameterNumber":3,"parameterNumberName":"V-component_of_WINDS"},"data":[0,0,0,0,0,0,0,0,0,0,0,0,0,0,0,0,0,0,0,0,0,0,0,0,0,0,0,0,0,0,0,0,0,0,0,0,0,0,0,0,0,0,0,0,0,0,0,0,0,0,0,0,0,0,0,0,0,0,4.6268,4.6269,0,4.6302,4.6302,4.6302,4.6258,4.6256,4.6255,4.6253,4.6286,4.6288,4.6291,0,0,0,0,0,0,0,0,0,0,0,0,0,4.6166,4.6168,4.6268,4.6269,4.6269,4.6302,4.6302,4.6302,4.6258,4.6256,4.6254,4.6252,4.6285,4.6288,4.6291,0,0,0,0,0,0,0,0,0,0,0,0,0,4.6206,4.6169,4.6268,4.6251,4.625,4.6301,4.6302,4.6303,4.6259,4.6256,4.6254,4.6252,4.6284,4.6288,4.6291,4.6361,0,0,4.6302,4.6304,0,0,0,0,0,0,0,0,4.6204,4.621,4.6253,4.6252,4.6251,4.6273,4.6278,4.6322,4.6259,4.6255,4.6253,4.625,4.6284,4.6287,4.6299,4.6363,4.6364,4.6302,4.6305,4.6306,4.6307,0,0,0,0,0,0,0,4.6201,4.6208,4.6281,4.6254,4.6252,4.6241,4.6244,4.6286,4.6282,4.6255,4.6252,4.6257,4.6283,4.6295,4.6299,4.6365,4.6302,4.6305,4.6308,4.6309,4.649,4.6493,0,0,0,0,0,0,4.62,4.6206,4.628,4.6282,4.6221,4.6245,4.6249,4.6268,4.6282,4.6282,4.6259,4.6255,4.629,4.6295,4.63,4.6384,4.6306,4.6309,4.6311,4.6487,4.6491,4.6494,0,0,0,0,0,0,4.6198,4.6207,4.6279,4.6243,4.6252,4.625,4.6272,4.627,4.6283,4.6284,4.6283,4.6273,4.6289,4.6295,4.6347,4.6385,4.6311,4.6314,4.6484,4.6488,4.6492,4.6553,0,0,0,0,0,0,4.6196,4.6207,4.6233,4.6244,4.6254,4.6325,4.6274,4.6273,4.6289,4.6284,4.6297,4.6297,4.6287,4.6342,4.635,4.6388,4.6317,4.6481,4.6486,4.6491,4.6547,4.6558,4.6568,0,0,0,0,0,4.6192,4.6248,4.6235,4.6244,4.6287,4.6328,4.6333,4.6321,4.6292,4.6319,4.6321,4.6296,4.6379,4.6348,4.6357,4.6396,4.6478,4.6485,4.6491,4.6543,4.6556,4.6567,0,0,0,0,0,0,4.6241,4.6249,4.6235,4.6296,4.6312,4.632,4.6353,4.6335,4.6359,4.6353,4.6337,4.634,4.6396,4.6401,4.6366,4.6466,4.6424,4.6432,4.6461,4.6473,4.6483,4.6481,4.632,0,0,0,0,0,4.6259,4.6291,4.6297,4.6351,4.6359,4.6355,4.6372,4.6362,4.6378,4.6384,4.6389,4.6404,4.6434,4.6454,4.6481,4.6548,4.6551,4.658,4.659,4.6598,4.6606,4.6643,4.6657,4.6513,4.6513,4.6513,0,0,4.6296,4.6305,4.6326,4.6361,4.6371,4.6406,4.6361,4.6399,4.6425,4.6389,4.6439,4.6444,4.646,4.652,4.6547,4.6526,4.6646,4.6606,4.6613,4.6615,4.6651,4.6665,4.6677,4.6518,4.6517,4.6516,0,0,4.6381,4.6391,4.6438,4.645,4.6468,4.6465,4.6476,4.6488,4.649,4.654,4.6515,4.6545,4.6596,4.661,4.6623,4.6717,4.6696,4.6726,4.6779,4.6816,4.6828,4.6838,4.6873,4.6885,4.6733,4.6733,4.6733,0,4.6425,4.6477,4.6464,4.6504,4.6521,4.6492,4.654,4.6552,4.6577,4.659,4.6566,4.6631,4.664,4.6704,4.6727,4.6738,4.6752,4.6724,4.6827,4.6837,4.6846,4.6879,4.6892,4.6737,4.6737,4.6736,4.6736,0,4.6531,4.6567,4.6602,4.6629,4.665,4.6694,4.6688,4.671,4.6699,4.6699,4.6751,4.6761,4.6791,4.6805,4.6793,4.6868,4.6855,4.683,4.6787,4.6864,4.6895,4.6907,4.6742,4.6741,4.674,4.6739,0,0,4.6647,4.6668,4.6681,4.6694,4.6712,4.674,4.6783,4.6813,4.6833,4.6852,4.6889,4.6934,4.6911,4.6926,4.6916,4.6949,4.7024,4.6919,4.692,4.694,4.711,4.713,4.7144,4.7011,4.7013,4.7015,4.7109,0,4.6734,4.681,4.68,4.6872,4.6907,4.688,4.6918,4.6934,4.6935,4.6965,4.6966,4.6999,4.6965,4.6975,4.7006,4.7009,4.7058,4.7002,4.7045,4.7047,4.7043,4.716,4.7181,4.7269,4.7121,4.7123,4.7124,0,4.6846,4.687,4.6947,4.6962,4.6976,4.701,4.7038,4.7066,4.7083,4.7082,4.7101,4.7086,4.713,4.7087,4.7148,4.711,4.7127,4.7131,4.7134,4.7139,4.7091,4.7169,4.7297,4.7311,4.7143,4.7141,4.714,0,4.6925,4.6977,4.703,4.7042,4.706,4.7085,4.7094,4.7109,4.7128,4.7152,4.7165,4.7194,4.721,4.7233,4.7226,4.7195,4.729,4.7246,4.7291,4.7292,4.7313,4.7312,4.7446,4.7322,4.7322,4.7322,4.7321,0,4.7024,4.7072,4.7066,4.7099,4.7153,4.7141,4.7195,4.72,4.7214,4.7248,4.7226,4.7258,4.7247,4.7279,4.7274,4.7326,4.7333,4.7334,4.7333,4.7337,4.7337,4.7349,4.7343,4.7325,4.7324,4.7324,4.7323,0,4.7122,4.712,4.7176,4.719,4.7194,4.7233,4.7245,4.7276,4.7276,4.7319,4.7329,4.7329,4.7366,4.7361,4.7401,4.7398,4.7464,4.7454,4.7459,4.7457,4.7503,4.75,4.7651,4.7671,4.7533,4.7534,4.7535,0,4.7186,4.7223,4.7241,4.7262,4.7273,4.7308,4.7328,4.7319,4.7341,4.7365,4.7393,4.7428,4.7455,4.7515,4.7519,4.755,4.7542,4.7593,4.7546,4.755,4.7545,4.7543,4.7548,4.7602,4.7604,4.7605,4.7606,0,4.7301,4.7298,4.7328,4.7359,4.7384,4.7408,4.7429,4.7447,4.744,4.7466,4.7504,4.7525,4.7567,4.7602,4.7632,4.7641,4.7623,4.7621,4.7633,4.7639,4.764,4.7642,4.7485,4.7617,4.7616,4.7615,4.7615,4.7614,4.7385,4.7417,4.7435,4.747,4.7485,4.7506,4.7537,4.7542,4.7573,4.7607,4.7599,4.7642,4.7661,4.7699,4.7712,4.7745,4.7727,4.7744,4.7749,4.7754,4.776,4.7634,4.775,4.775,4.775,4.7749,4.7749,0,4.75,4.7511,4.7543,4.7574,4.7602,4.7583,4.7606,4.763,4.7668,4.7687,4.7715,4.7759,4.7794,4.7801,4.7834,4.786,4.7853,4.7869,4.7868,4.7871,4.7774,4.7761,4.7875,4.7875,4.7875,4.7875,4.7875,4.7875,4.7563,4.7617,4.7617,4.7679,4.7689,4.7732,4.7747,4.7766,4.7782,4.7832,4.7861,4.7866,4.7881,4.7915,4.7947,4.7948,4.7962,4.7982,4.798,4.789,4.7877,4.7865,4.7853,4.7985,4.7985,4.8075,4.8076,4.8076]}]]